Regional Weather Roundup
Issued by NWS

Home | Current Version | Previous Version | Text Only | Print | Product List | Glossary Off
Versions: 1 2 3 4 5 6 7 8 9 10 11 12 13 14 15 16 17 18 19 20 21 22 23 24 25 26 27 28 29 30 31 32 33 34 35 36 37 38 39 40 41 42 43 44 45 46 47 48 49 50

382
ASUS43 KDTX 250110
RWRMI
MICHIGAN HOURLY REGIONAL WEATHER ROUNDUP
NATIONAL WEATHER SERVICE DETROIT/PONTIAC MI
900 PM EDT MON APR 24 2017

NOTE: "FAIR" INDICATES FEW OR NO CLOUDS BELOW 12,000 FEET WITH NO
SIGNIFICANT WEATHER AND/OR OBSTRUCTION TO VISIBILITY.

MIZ047>049-052>055-059>063-066>070-074>076-081>083-250200-
SOUTHEAST LOWER MICHIGAN

CITY           SKY/WX    TMP DP  RH WIND       PRES   REMARKS
ADRIAN         CLOUDY    55  36  48 E14       29.91S
ALMA           PTCLDY    52  45  76 NE9       29.91S
ANN ARBOR      CLOUDY    60  32  34 E14G22    29.91S
BAD AXE        CLOUDY    48  38  69 E6        29.96S
CARO           CLOUDY    58  40  51 E9G18     29.92S
DETROIT CITY   CLOUDY    59  40  49 E13       29.93S
DETROIT        MOCLDY    60  37  42 E15G23    29.93S
FLINT          PTCLDY    59  30  33 SE7       29.90F
GROSSE ILE     CLEAR     57  37  47 E10G20    29.91F
HILLSDALE      CLOUDY    55  34  44 E13G23    29.87F
HOWELL         CLOUDY    62  23  22 E8        29.89F

CITY           SKY/WX    TMP DP  RH WIND       PRES   REMARKS
JACKSON        CLOUDY    62  36  37 SE12      29.88F
LAMBERTVILLE   CLEAR     52  44  73 E7        29.91F
LANSING        CLOUDY    62  28  27 E7        29.89S
LAPEER         FAIR      58  41  52 E12       29.93S
MASON          CLOUDY    63  36  36 SE6       29.89S
MONROE         CLOUDY    55  40  55 E16G28    29.91F
MT. CLEMENS    CLOUDY    55  48  77 NE7       29.92R
PONTIAC        CLOUDY    62  33  33 SE8       29.91S
PORT HOPE        N/A     47  40  76 E8        29.96S
PORT HURON     CLOUDY    46  39  76 NE5       29.96S
TRI CITIES     CLOUDY    49  45  86 NE12      29.93F
MIDLAND        FAIR      49  40  71 NE8       29.92F
TROY           CLOUDY    63  31  30 E6        29.95R
SAGINAW HB     CLOUDY    52  45  76 N7        29.92S
$$
MIZ043>046-050>051-056>058-064>065-071>073-077>080-250200-
SOUTHWEST LOWER MICHIGAN

CITY           SKY/WX    TMP DP  RH WIND       PRES   REMARKS
BATTLE CREEK   CLEAR     65  29  25 E8        29.87S
BENTON HARBOR  PTCLDY    64  28  25 E8        29.81F
BIG RAPIDS     CLOUDY    61  39  45 SE10G20   29.87F
COLDWATER      CLOUDY    60  32  35 SE7       29.85F
FREMONT        FAIR      64  28  25 E6        29.84F
HOLLAND        CLOUDY    61  34  36 SE8       29.83F
GRAND RAPIDS   CLOUDY    60  34  37 E9        29.86S
IONIA          FAIR      60  32  34 E7        29.87S
KALAMAZOO      CLEAR     64  28  25 E6        29.86S
LUDINGTON      CLOUDY    53  37  54 CALM      29.82F
MARSHALL       CLOUDY    62  30  30 E6        29.86F
MOUNT PLEASANT CLOUDY    54  41  62 E8        29.90S
MUSKEGON       CLOUDY    64  31  28 E7        29.83F
SOUTH HAVEN    PTCLDY    64  29  26 SE6       29.82S
$$
MIZ016>042-250200-
NORTHERN LOWER MICHIGAN

CITY           SKY/WX    TMP DP  RH WIND       PRES   REMARKS
ALPENA         CLOUDY    43  34  70 E8        29.99F
BEAVER ISLAND  PTCLDY    42  35  75 E12G18    29.89F
BELLAIRE       CLOUDY    64  32  30 SE12G18   29.88R
CADILLAC       CLOUDY    58  39  49 SE12      29.88F
CHARLEVOIX     CLOUDY    55  39  53 E15       29.91R
FRANKFORT      CLOUDY    51  34  52 CALM      29.85S
GAYLORD        PTCLDY    54  35  48 SE9G18    29.92S
GRAYLING       PTCLDY    54  38  55 E9        29.94S
HARBOR SPRINGS PTCLDY    49  36  60 E16G22    29.92R
HOUGHTON LAKE  CLOUDY    54  39  57 E10       29.92F
MANISTEE       PTCLDY    52  38  58 CALM      29.83F
OSCODA         CLOUDY    42  34  72 N5        29.98S
PELLSTON       CLOUDY    49  34  56 SE9       29.94R
ROGERS CITY    CLOUDY    44  32  62 SE12      30.00F
TRAVERSE CITY  CLOUDY    65  36  34 SE7       29.84F
$$
MIZ007>008-015-250200-
EASTERN UPPER MICHIGAN

CITY           SKY/WX    TMP DP  RH WIND       PRES   REMARKS
KINROSS        PTCLDY    44  31  60 SE12      29.97F
MACKINAC ISLAN PTCLDY    39  32  75 E18G33    29.96S WCI  30
NEWBERRY       CLOUDY    44  32  63 E15       29.92F
S. S. MARIE    CLOUDY    47  32  56 SE12G18   29.97F
MUNISING         N/A     48  35  60 S9G22     29.84F
$$
MIZ004>006-011>014-085-250200-
CENTRAL UPPER MICHIGAN

CITY           SKY/WX    TMP DP  RH WIND       PRES   REMARKS
MANISTIQUE     CLOUDY    43  35  72 E14G22    29.87F
ESCANABA       CLOUDY    44  37  76 E7        29.86F
MENOMINEE      CLOUDY    45  38  76 E6        29.84S
SAWYER-GWINN   CLEAR     46  36  66 S8        29.84S
$$
MIZ001>003-009>011-084-250200-
WESTERN UPPER MICHIGAN

CITY           SKY/WX    TMP DP  RH WIND       PRES   REMARKS
IRON MOUNTAIN  CLOUDY    47  35  63 E9        29.80S
HOUGHTON       CLOUDY    41  34  76 E13       29.75S
COPPER HARBOR    N/A     45  35  68 S18G30    29.76F
IRONWOOD       CLOUDY    62  34  35 SE8       29.68S
$$

ABBREVIATIONS USED IN REMARKS
   TC - TEMPERATURE IN CELSIUS
  WCI - WIND CHILL INDEX
   HX - HEAT INDEX
  VSB - VISIBILITY





USA.gov is the U.S. government's official web portal to all federal, state and local government web resources and services.